Time,TemperatureF,DewpointF,PressureIn,WindDirection,WindDirectionDegrees,WindSpeedMPH,WindSpeedGustMPH,Humidity,HourlyPrecipIn,Conditions,Clouds,dailyrainin,SolarRadiationWatts/m^2,SoftwareType,DateUTC
2013-04-27 00:01:00,54.0,42.0,-100.00,ENE,78,2.0,4.0,64,0.00,,,-99.99,1.000000,,2013-04-27 07:01:00,
2013-04-27 00:32:00,52.0,42.0,-100.00,ESE,117,2.0,3.0,69,0.00,,,0.00,1.000000,,2013-04-27 07:32:00,
2013-04-27 00:42:00,52.0,42.0,-100.00,ESE,117,2.0,3.0,69,0.00,,,0.00,1.000000,,2013-04-27 07:42:00,
2013-04-27 00:52:00,52.0,42.0,-100.00,ESE,117,2.0,3.0,69,0.00,,,0.00,1.000000,,2013-04-27 07:52:00,
2013-04-27 01:01:00,52.0,42.0,-100.00,ESE,117,2.0,3.0,69,0.00,,,0.00,1.000000,,2013-04-27 08:01:00,
2013-04-27 01:33:00,49.0,40.0,-100.00,East,81,0.0,2.0,72,0.00,,,0.00,1.000000,,2013-04-27 08:33:00,
2013-04-27 01:42:00,49.0,40.0,-100.00,East,81,0.0,2.0,72,0.00,,,0.00,1.000000,,2013-04-27 08:42:00,
2013-04-27 01:52:00,49.0,40.0,-100.00,East,81,0.0,2.0,72,0.00,,,0.00,1.000000,,2013-04-27 08:52:00,
2013-04-27 02:01:00,49.0,40.0,-100.00,East,81,0.0,2.0,72,0.00,,,0.00,1.000000,,2013-04-27 09:01:00,
2013-04-27 02:33:00,49.0,42.0,-100.00,ENE,66,2.0,3.0,76,0.00,,,0.00,1.000000,,2013-04-27 09:33:00,
2013-04-27 02:43:00,49.0,42.0,-100.00,ENE,66,2.0,3.0,76,0.00,,,0.00,1.000000,,2013-04-27 09:43:00,
2013-04-27 02:53:00,49.0,42.0,-100.00,ENE,66,2.0,3.0,76,0.00,,,0.00,1.000000,,2013-04-27 09:53:00,
2013-04-27 03:02:00,49.0,42.0,-100.00,ENE,66,2.0,3.0,76,0.00,,,0.00,1.000000,,2013-04-27 10:02:00,
2013-04-27 03:33:00,48.0,42.0,-100.00,SSE,147,1.0,2.0,80,0.00,,,-99.99,1.000000,,2013-04-27 10:33:00,
2013-04-27 03:42:00,48.0,42.0,-100.00,SSE,147,1.0,2.0,80,0.00,,,-99.99,1.000000,,2013-04-27 10:42:00,
2013-04-27 03:52:00,48.0,42.0,-100.00,SSE,147,1.0,2.0,80,0.00,,,-99.99,1.000000,,2013-04-27 10:52:00,
2013-04-27 04:02:00,48.0,42.0,-100.00,SSE,147,1.0,2.0,80,0.00,,,-99.99,1.000000,,2013-04-27 11:02:00,
2013-04-27 04:32:00,45.0,40.0,-100.00,West,274,1.0,2.0,84,0.00,,,0.00,1.000000,,2013-04-27 11:32:00,
2013-04-27 04:42:00,45.0,40.0,-100.00,West,274,1.0,2.0,84,0.00,,,0.00,1.000000,,2013-04-27 11:42:00,
2013-04-27 04:52:00,45.0,40.0,-100.00,West,274,1.0,2.0,84,0.00,,,0.00,1.000000,,2013-04-27 11:52:00,
2013-04-27 05:01:00,45.0,40.0,-100.00,West,274,1.0,2.0,84,0.00,,,0.00,1.000000,,2013-04-27 12:01:00,
2013-04-27 05:32:00,45.0,41.0,-100.00,ENE,78,0.0,4.0,87,0.00,,,0.00,1.000000,,2013-04-27 12:32:00,
2013-04-27 05:42:00,45.0,41.0,-100.00,ENE,78,0.0,4.0,87,0.00,,,0.00,1.000000,,2013-04-27 12:42:00,
2013-04-27 05:52:00,45.0,41.0,-100.00,ENE,78,0.0,4.0,87,0.00,,,0.00,1.000000,,2013-04-27 12:52:00,
2013-04-27 06:01:00,45.0,41.0,-100.00,ENE,78,0.0,4.0,87,0.00,,,0.00,1.000000,,2013-04-27 13:01:00,
2013-04-27 06:32:00,43.0,41.0,-100.00,NE,56,0.0,2.0,91,0.00,,,0.00,1.000000,,2013-04-27 13:32:00,
2013-04-27 06:42:00,43.0,41.0,-100.00,NE,56,0.0,2.0,91,0.00,,,0.00,1.000000,,2013-04-27 13:42:00,
2013-04-27 06:52:00,43.0,41.0,-100.00,NE,56,0.0,2.0,91,0.00,,,0.00,1.000000,,2013-04-27 13:52:00,
2013-04-27 07:02:00,43.0,41.0,-100.00,NE,56,0.0,2.0,91,0.00,,,0.00,1.000000,,2013-04-27 14:02:00,
2013-04-27 07:32:00,45.0,43.0,-100.00,SE,144,0.0,3.0,91,0.00,,,0.00,29.000000,,2013-04-27 14:32:00,
2013-04-27 07:42:00,45.0,43.0,-100.00,SE,144,0.0,3.0,91,0.00,,,0.00,29.000000,,2013-04-27 14:42:00,
2013-04-27 07:52:00,45.0,43.0,-100.00,SE,144,0.0,3.0,91,0.00,,,0.00,29.000000,,2013-04-27 14:52:00,
2013-04-27 08:01:00,45.0,43.0,-100.00,SE,144,0.0,3.0,91,0.00,,,0.00,29.000000,,2013-04-27 15:01:00,
2013-04-27 08:33:00,53.0,44.0,-100.00,ESE,120,2.0,2.0,72,0.00,,,0.00,179.000000,,2013-04-27 15:33:00,
2013-04-27 08:43:00,53.0,44.0,-100.00,ESE,120,2.0,2.0,72,0.00,,,0.00,179.000000,,2013-04-27 15:43:00,
2013-04-27 08:53:00,53.0,44.0,-100.00,ESE,120,2.0,2.0,72,0.00,,,0.00,179.000000,,2013-04-27 15:53:00,
2013-04-27 09:02:00,53.0,44.0,-100.00,ESE,120,2.0,2.0,72,0.00,,,0.00,179.000000,,2013-04-27 16:02:00,
2013-04-27 09:33:00,58.0,42.0,-100.00,West,264,5.0,10.0,55,0.00,,,0.00,385.000000,,2013-04-27 16:33:00,
2013-04-27 09:42:00,58.0,42.0,-100.00,West,264,5.0,10.0,55,0.00,,,0.00,385.000000,,2013-04-27 16:42:00,
2013-04-27 09:53:00,58.0,42.0,-100.00,West,264,5.0,10.0,55,0.00,,,0.00,385.000000,,2013-04-27 16:53:00,
2013-04-27 10:02:00,58.0,42.0,-100.00,West,264,5.0,10.0,55,0.00,,,0.00,385.000000,,2013-04-27 17:02:00,
2013-04-27 10:32:00,65.0,37.0,-100.00,SW,230,6.0,14.0,35,0.00,,,0.00,555.000000,,2013-04-27 17:32:00,
2013-04-27 10:42:00,65.0,37.0,-100.00,SW,230,6.0,14.0,35,0.00,,,0.00,555.000000,,2013-04-27 17:42:00,
2013-04-27 10:53:00,65.0,37.0,-100.00,SW,230,6.0,14.0,35,0.00,,,0.00,555.000000,,2013-04-27 17:53:00,
2013-04-27 11:02:00,65.0,37.0,-100.00,SW,230,6.0,14.0,35,0.00,,,0.00,555.000000,,2013-04-27 18:02:00,
2013-04-27 11:32:00,68.0,36.0,-100.00,WSW,243,7.0,17.0,31,0.00,,,-99.99,692.000000,,2013-04-27 18:32:00,
2013-04-27 11:42:00,68.0,36.0,-100.00,WSW,243,7.0,17.0,31,0.00,,,-99.99,692.000000,,2013-04-27 18:42:00,
2013-04-27 11:52:00,68.0,36.0,-100.00,WSW,243,7.0,17.0,31,0.00,,,-99.99,692.000000,,2013-04-27 18:52:00,
2013-04-27 12:02:00,68.0,36.0,-100.00,WSW,243,7.0,17.0,31,0.00,,,-99.99,692.000000,,2013-04-27 19:02:00,
2013-04-27 12:32:00,69.0,36.0,-100.00,WSW,254,8.0,19.0,30,0.00,,,0.00,796.000000,,2013-04-27 19:32:00,
2013-04-27 12:42:00,69.0,36.0,-100.00,WSW,254,8.0,19.0,30,0.00,,,0.00,796.000000,,2013-04-27 19:42:00,
2013-04-27 12:53:00,69.0,36.0,-100.00,WSW,254,8.0,19.0,30,0.00,,,0.00,796.000000,,2013-04-27 19:53:00,
2013-04-27 13:02:00,69.0,36.0,-100.00,WSW,254,8.0,19.0,30,0.00,,,0.00,796.000000,,2013-04-27 20:02:00,
2013-04-27 13:32:00,70.0,35.0,-100.00,West,264,9.0,19.0,28,0.00,,,0.00,744.000000,,2013-04-27 20:32:00,
2013-04-27 13:42:00,70.0,35.0,-100.00,West,264,9.0,19.0,28,0.00,,,0.00,744.000000,,2013-04-27 20:42:00,
2013-04-27 13:52:00,70.0,35.0,-100.00,West,264,9.0,19.0,28,0.00,,,0.00,744.000000,,2013-04-27 20:52:00,
2013-04-27 14:02:00,70.0,35.0,-100.00,West,264,9.0,19.0,28,0.00,,,0.00,744.000000,,2013-04-27 21:02:00,
2013-04-27 14:33:00,72.0,36.0,-100.00,SW,236,8.0,18.0,27,0.00,,,0.00,767.000000,,2013-04-27 21:33:00,
2013-04-27 14:43:00,72.0,36.0,-100.00,SW,236,8.0,18.0,27,0.00,,,0.00,767.000000,,2013-04-27 21:43:00,
2013-04-27 14:53:00,72.0,36.0,-100.00,SW,236,8.0,18.0,27,0.00,,,0.00,767.000000,,2013-04-27 21:53:00,
2013-04-27 15:02:00,72.0,36.0,-100.00,SW,236,8.0,18.0,27,0.00,,,0.00,767.000000,,2013-04-27 22:02:00,
2013-04-27 15:32:00,72.0,37.0,-100.00,WSW,255,8.0,19.0,28,0.00,,,0.00,698.000000,,2013-04-27 22:32:00,
2013-04-27 15:42:00,72.0,37.0,-100.00,WSW,255,8.0,19.0,28,0.00,,,0.00,698.000000,,2013-04-27 22:42:00,
2013-04-27 15:52:00,72.0,37.0,-100.00,WSW,255,8.0,19.0,28,0.00,,,0.00,698.000000,,2013-04-27 22:52:00,
2013-04-27 16:02:00,72.0,37.0,-100.00,WSW,255,8.0,19.0,28,0.00,,,0.00,698.000000,,2013-04-27 23:02:00,
2013-04-27 16:32:00,72.0,37.0,-100.00,WSW,251,7.0,14.0,28,0.00,,,0.00,519.000000,,2013-04-27 23:32:00,
2013-04-27 16:42:00,72.0,37.0,-100.00,WSW,251,7.0,14.0,28,0.00,,,0.00,519.000000,,2013-04-27 23:42:00,
2013-04-27 16:52:00,72.0,37.0,-100.00,WSW,251,7.0,14.0,28,0.00,,,0.00,519.000000,,2013-04-27 23:52:00,
2013-04-27 17:01:00,72.0,37.0,-100.00,WSW,251,7.0,14.0,28,0.00,,,0.00,519.000000,,2013-04-28 00:01:00,
2013-04-27 18:32:00,70.0,38.0,-100.00,WSW,256,6.0,14.0,31,-99.99,,,0.00,269.000000,,2013-04-28 01:32:00,
2013-04-27 18:42:00,70.0,38.0,-100.00,WSW,256,6.0,14.0,31,-99.99,,,0.00,269.000000,,2013-04-28 01:42:00,
2013-04-27 18:52:00,70.0,38.0,-100.00,WSW,256,6.0,14.0,31,-99.99,,,0.00,269.000000,,2013-04-28 01:52:00,
2013-04-27 19:01:00,70.0,38.0,-100.00,WSW,256,6.0,14.0,31,-99.99,,,0.00,269.000000,,2013-04-28 02:01:00,
2013-04-27 19:32:00,66.0,40.0,-100.00,West,264,6.0,12.0,38,0.00,,,0.00,56.000000,,2013-04-28 02:32:00,
2013-04-27 19:42:00,66.0,40.0,-100.00,West,264,6.0,12.0,38,0.00,,,0.00,56.000000,,2013-04-28 02:42:00,
2013-04-27 19:52:00,66.0,40.0,-100.00,West,264,6.0,12.0,38,0.00,,,0.00,56.000000,,2013-04-28 02:52:00,
2013-04-27 20:01:00,66.0,40.0,-100.00,West,264,6.0,12.0,38,0.00,,,0.00,56.000000,,2013-04-28 03:01:00,
2013-04-27 20:33:00,62.0,45.0,-100.00,SW,221,5.0,10.0,53,0.00,,,0.00,12.000000,,2013-04-28 03:33:00,
2013-04-27 20:43:00,62.0,45.0,-100.00,SW,221,5.0,10.0,53,0.00,,,0.00,12.000000,,2013-04-28 03:43:00,
2013-04-27 20:53:00,62.0,45.0,-100.00,SW,221,5.0,10.0,53,0.00,,,0.00,12.000000,,2013-04-28 03:53:00,
2013-04-27 21:02:00,62.0,45.0,-100.00,SW,221,5.0,10.0,53,0.00,,,0.00,12.000000,,2013-04-28 04:02:00,
2013-04-27 21:32:00,59.0,46.0,-100.00,SW,234,5.0,13.0,61,0.00,,,0.00,1.000000,,2013-04-28 04:32:00,
2013-04-27 21:43:00,59.0,46.0,-100.00,SW,234,5.0,13.0,61,0.00,,,0.00,1.000000,,2013-04-28 04:43:00,
2013-04-27 21:53:00,59.0,46.0,-100.00,SW,234,5.0,13.0,61,0.00,,,0.00,1.000000,,2013-04-28 04:53:00,
2013-04-27 22:02:00,59.0,46.0,-100.00,SW,234,5.0,13.0,61,0.00,,,0.00,1.000000,,2013-04-28 05:02:00,
2013-04-27 22:32:00,58.0,47.0,-100.00,SW,219,5.0,12.0,66,0.00,,,0.00,1.000000,,2013-04-28 05:32:00,
2013-04-27 22:42:00,58.0,47.0,-100.00,SW,219,5.0,12.0,66,0.00,,,0.00,1.000000,,2013-04-28 05:42:00,
2013-04-27 22:52:00,58.0,47.0,-100.00,SW,219,5.0,12.0,66,0.00,,,0.00,1.000000,,2013-04-28 05:52:00,
2013-04-27 23:01:00,58.0,47.0,-100.00,SW,219,5.0,12.0,66,0.00,,,0.00,1.000000,,2013-04-28 06:01:00,
2013-04-27 23:32:00,56.0,46.0,-100.00,SW,227,6.0,11.0,69,0.00,,,0.00,1.000000,,2013-04-28 06:32:00,
2013-04-27 23:42:00,56.0,46.0,-100.00,SW,227,6.0,11.0,69,0.00,,,0.00,1.000000,,2013-04-28 06:42:00,
2013-04-27 23:52:00,56.0,46.0,-100.00,SW,227,6.0,11.0,69,0.00,,,0.00,1.000000,,2013-04-28 06:52:00,